Location: Newark
(50.8547°N, 2.7256°E)
Time: 11:23:12
(UTC+00:00)

Envisat - Pass Details

Date: 30 January 2020
Orbit: 764 x 766 km, 98.1° (Epoch: 25 February)

Event Time Altitude Azimuth Distance (km) Brightness Sun altitude
Rises 17:43:16 0° 173° (S) 3,222 6.3 -10.7°
Reaches altitude 10° 17:45:35 10° 176° (S) 2,300 5.6 -11.0°
Maximum altitude 17:50:36 64° 258° (WSW) 850 3.5 -11.8°
Drops below altitude 10° 17:55:41 10° 340° (NNW) 2,316 5.6 -12.6°
Sets 17:58:02 0° 344° (NNW) 3,247 6.3 -12.9°
